Weather History for KAKO - March, 2013

Change the Weather History Date:

Friday, March 15, 2013

  Actual Average Record
Temperature  
Mean Temperature 61 °F 39 °F  
Max Temperature 77 °F 52 °F 80 °F (2015)
Min Temperature 44 °F 26 °F 2 °F (1952)
Degree Days  
Heating Degree Days 4    
Month to date heating degree days 399  
Cooling Degree Days 0    
Month to date cooling degree days 0  
Growing Degree Days 10 (Base 50)    
Moisture  
Dew Point 25 °F    
Average Humidity 33    
Maximum Humidity 53    
Minimum Humidity 13    
Precipitation  
Precipitation 0.00 in 0.03 in 0.63 in (1946)
Month to date precipitation 0.29 0.35  
Year to date precipitation 0.41 1.09  
Sea Level Pressure  
Sea Level Pressure 29.84 in    
Wind  
Wind Speed 13 mph (West)    
Max Wind Speed 30 mph    
Max Gust Speed 49 mph    
Visibility 10 miles    
Events      
T = Trace of Precipitation, MM = Missing Value Source: NWS Daily Summary

Daily Weather History Graph

Daily Weather History Graph

Search for Another Location

Airport or City:

Trip Planner

Search our weather history database for the weather conditions in past years. The results will help you decide how hot, cold, wet, or windy it might be!

Date:

Astronomy

Mar. 15, 2013 Rise Set
Actual Time 7:03 AM MDT 7:00 PM MDT
Civil Twilight 6:36 AM MDT 7:27 PM MDT
Nautical Twilight 6:05 AM MDT 7:58 PM MDT
Astronomical Twilight 5:33 AM MDT 8:30 PM MDT
Moon 8:55 AM MDT (3/15) 11:16 PM MDT (3/15)
Length of Visible Light 12h 50m
Length of Day
11h 56m
Waxing Crescent, 16% of the Moon is Illuminated
Mar 15
Waxing Crescent
Mar 19
First Quarter
Mar 27
Full
Apr 2
Last Quarter
Apr 10
New

Hourly Weather History & Observations

Time (MDT) Temp. Windchill Dew Point Humidity Pressure Visibility Wind Dir Wind Speed Gust Speed Precip Events Conditions
12:53 AM 50.0 °F - 28.0 °F 43% 29.99 in 10.0 mi SW 16.1 mph - N/A   Clear
1:53 AM 46.0 °F 39.6 °F 30.0 °F 54% 29.97 in 10.0 mi SW 15.0 mph - N/A   Clear
2:53 AM 46.0 °F 39.6 °F 28.9 °F 51% 29.94 in 10.0 mi SW 15.0 mph - N/A   Clear
3:53 AM 45.0 °F 37.9 °F 28.9 °F 53% 29.92 in 10.0 mi SW 16.1 mph - N/A   Clear
4:53 AM 45.0 °F 38.2 °F 27.0 °F 49% 29.91 in 10.0 mi SW 15.0 mph - N/A   Clear
5:53 AM 46.0 °F 39.9 °F 26.1 °F 46% 29.91 in 10.0 mi WSW 13.8 mph - N/A   Clear
6:53 AM 45.0 °F 38.9 °F 26.1 °F 48% 29.92 in 10.0 mi SW 12.7 mph - N/A   Clear
7:53 AM 46.9 °F - 27.0 °F 46% 29.92 in 10.0 mi SW 10.4 mph - N/A   Clear
8:53 AM 55.9 °F - 27.0 °F 33% 29.89 in 10.0 mi WSW 15.0 mph - N/A   Clear
9:53 AM 62.1 °F - 28.0 °F 28% 29.86 in 10.0 mi WSW 15.0 mph - N/A   Clear
10:53 AM 61.0 °F - 28.9 °F 30% 29.85 in 10.0 mi WSW 16.1 mph - N/A   Clear
11:53 AM 61.0 °F - 28.9 °F 30% 29.83 in 10.0 mi West 15.0 mph - N/A   Clear
12:53 PM 64.0 °F - 30.0 °F 28% 29.82 in 10.0 mi West 11.5 mph - N/A   Clear
1:53 PM 70.0 °F - 27.0 °F 20% 29.79 in 10.0 mi WSW 13.8 mph - N/A   Clear
2:53 PM 75.9 °F - 21.0 °F 13% 29.74 in 10.0 mi West 16.1 mph 27.6 mph N/A   Clear
3:53 PM 73.9 °F - 21.9 °F 14% 29.73 in 10.0 mi West 13.8 mph 24.2 mph N/A   Scattered Clouds
4:16 PM 71.6 °F - 19.4 °F 14% 29.86 in 10.0 mi NNW 12.7 mph - N/A   Mostly Cloudy
4:53 PM 70.0 °F - 23.0 °F 17% 29.75 in 10.0 mi NW 9.2 mph - N/A   Mostly Cloudy
5:53 PM 68.0 °F - 21.9 °F 17% 29.77 in 10.0 mi West 8.1 mph 49.5 mph N/A   Mostly Cloudy
6:53 PM 64.9 °F - 17.1 °F 16% 29.79 in 10.0 mi WNW 9.2 mph - N/A   Partly Cloudy
7:53 PM 63.0 °F - 21.0 °F 20% 29.81 in 10.0 mi West 10.4 mph - N/A   Mostly Cloudy
8:53 PM 57.9 °F - 23.0 °F 26% 29.78 in 10.0 mi NW 8.1 mph - N/A   Clear
9:53 PM 57.9 °F - 23.0 °F 26% 29.77 in 10.0 mi NW 6.9 mph - N/A   Mostly Cloudy
10:53 PM 57.0 °F - 24.1 °F 28% 29.77 in 10.0 mi North 4.6 mph - N/A   Overcast
11:53 PM 55.9 °F - 26.1 °F 32% 29.79 in 10.0 mi Calm Calm - N/A   Overcast